Year,Month,Day,Hour,Minute,Value (Times are PST for temperature in C)
2008,06,23,00,00,7.60
2008,06,23,00,01,7.60
2008,06,23,00,02,7.60
2008,06,23,00,03,7.60
2008,06,23,00,04,7.60
2008,06,23,00,05,7.60
2008,06,23,00,06,7.50
2008,06,23,00,07,7.50
2008,06,23,00,08,7.50
2008,06,23,00,09,7.50
2008,06,23,00,10,7.40
2008,06,23,00,11,7.40
2008,06,23,00,12,7.40
2008,06,23,00,13,7.40
2008,06,23,00,14,7.40
2008,06,23,00,15,7.40
2008,06,23,00,16,7.40
2008,06,23,00,17,7.30
2008,06,23,00,18,7.30
2008,06,23,00,19,7.30
2008,06,23,00,20,7.30
2008,06,23,00,21,7.30
2008,06,23,00,22,7.30
2008,06,23,00,23,7.30
2008,06,23,00,24,7.30
2008,06,23,00,25,7.30
2008,06,23,00,26,7.30
2008,06,23,00,27,7.30
2008,06,23,00,28,7.30
2008,06,23,00,29,7.30
2008,06,23,00,30,7.30
2008,06,23,00,31,7.30
2008,06,23,00,32,7.20
2008,06,23,00,33,7.20
2008,06,23,00,34,7.20
2008,06,23,00,35,7.20
2008,06,23,00,36,7.10
2008,06,23,00,37,7.10
2008,06,23,00,38,7.10
2008,06,23,00,39,7.00
2008,06,23,00,40,7.00
2008,06,23,00,41,7.00
2008,06,23,00,42,7.00
2008,06,23,00,43,6.90
2008,06,23,00,44,6.90
2008,06,23,00,45,6.90
2008,06,23,00,46,6.90
2008,06,23,00,47,6.90
2008,06,23,00,48,6.90
2008,06,23,00,49,6.90
2008,06,23,00,50,6.90
2008,06,23,00,51,6.80
2008,06,23,00,52,6.80
2008,06,23,00,53,6.80
2008,06,23,00,54,6.80
2008,06,23,00,55,6.80
2008,06,23,00,56,6.80
2008,06,23,00,57,6.80
2008,06,23,00,58,6.80
2008,06,23,00,59,6.80
2008,06,23,01,00,6.80
2008,06,23,01,01,6.80
2008,06,23,01,02,6.70
2008,06,23,01,03,6.70
2008,06,23,01,04,6.70
2008,06,23,01,05,6.70
2008,06,23,01,06,6.70
2008,06,23,01,07,6.60
2008,06,23,01,08,6.60
2008,06,23,01,09,6.60
2008,06,23,01,10,6.60
2008,06,23,01,11,6.60
2008,06,23,01,12,6.60
2008,06,23,01,13,6.60
2008,06,23,01,14,6.60
2008,06,23,01,15,6.50
2008,06,23,01,16,6.40
2008,06,23,01,17,6.40
2008,06,23,01,18,6.40
2008,06,23,01,19,6.40
2008,06,23,01,20,6.40
2008,06,23,01,21,6.40
2008,06,23,01,22,6.40
2008,06,23,01,23,6.40
2008,06,23,01,24,6.40
2008,06,23,01,25,6.30
2008,06,23,01,26,6.30
2008,06,23,01,27,6.30
2008,06,23,01,28,6.30
2008,06,23,01,29,6.20
2008,06,23,01,30,6.20
2008,06,23,01,31,6.20
2008,06,23,01,32,6.20
2008,06,23,01,33,6.20
2008,06,23,01,34,6.20
2008,06,23,01,35,6.20
2008,06,23,01,36,6.20
2008,06,23,01,37,6.10
2008,06,23,01,38,6.10
2008,06,23,01,39,6.10
2008,06,23,01,40,6.10
2008,06,23,01,41,6.10
2008,06,23,01,42,6.10
2008,06,23,01,43,6.10
2008,06,23,01,44,6.10
2008,06,23,01,45,6.00
2008,06,23,01,46,6.00
2008,06,23,01,47,6.00
2008,06,23,01,48,6.00
2008,06,23,01,49,6.00
2008,06,23,01,50,6.00
2008,06,23,01,51,5.90
2008,06,23,01,52,5.90
2008,06,23,01,53,5.90
2008,06,23,01,54,5.90
2008,06,23,01,55,5.90
2008,06,23,01,56,5.90
2008,06,23,01,57,5.80
2008,06,23,01,58,5.80
2008,06,23,01,59,5.80
2008,06,23,02,00,5.80
2008,06,23,02,01,5.70
2008,06,23,02,02,5.70
2008,06,23,02,03,5.70
2008,06,23,02,04,5.70
2008,06,23,02,05,5.70
2008,06,23,02,06,5.70
2008,06,23,02,07,5.70
2008,06,23,02,08,5.70
2008,06,23,02,09,5.70
2008,06,23,02,10,5.70
2008,06,23,02,11,5.60
2008,06,23,02,12,5.60
2008,06,23,02,13,5.60
2008,06,23,02,14,5.60
2008,06,23,02,15,5.60
2008,06,23,02,16,5.60
2008,06,23,02,17,5.60
2008,06,23,02,18,5.60
2008,06,23,02,19,5.60
2008,06,23,02,20,5.60
2008,06,23,02,21,5.60
2008,06,23,02,22,5.60
2008,06,23,02,23,5.50
2008,06,23,02,24,5.50
2008,06,23,02,25,5.50
2008,06,23,02,26,5.50
2008,06,23,02,27,5.50
2008,06,23,02,28,5.50
2008,06,23,02,29,5.50
2008,06,23,02,30,5.50
2008,06,23,02,31,5.40
2008,06,23,02,32,5.40
2008,06,23,02,33,5.40
2008,06,23,02,34,5.40
2008,06,23,02,35,5.30
2008,06,23,02,36,5.30
2008,06,23,02,37,5.30
2008,06,23,02,38,5.30
2008,06,23,02,39,5.30
2008,06,23,02,40,5.30
2008,06,23,02,41,5.30
2008,06,23,02,42,5.30
2008,06,23,02,43,5.30
2008,06,23,02,44,5.30
2008,06,23,02,45,5.30
2008,06,23,02,46,5.30
2008,06,23,02,47,5.30
2008,06,23,02,48,5.30
2008,06,23,02,49,5.30
2008,06,23,02,50,5.30
2008,06,23,02,51,5.30
2008,06,23,02,52,5.30
2008,06,23,02,53,5.30
2008,06,23,02,54,5.30
2008,06,23,02,55,5.30
2008,06,23,02,56,5.30
2008,06,23,02,57,5.30
2008,06,23,02,58,5.30
2008,06,23,02,59,5.30
2008,06,23,03,00,5.30
2008,06,23,03,01,5.30
2008,06,23,03,02,5.30
2008,06,23,03,03,5.30
2008,06,23,03,04,5.30
2008,06,23,03,05,5.30
2008,06,23,03,06,5.30
2008,06,23,03,07,5.30
2008,06,23,03,08,5.30
2008,06,23,03,09,5.30
2008,06,23,03,10,5.30
2008,06,23,03,11,5.30
2008,06,23,03,12,5.30
2008,06,23,03,13,5.30
2008,06,23,03,14,5.30
2008,06,23,03,15,5.30
2008,06,23,03,16,5.30
2008,06,23,03,17,5.30
2008,06,23,03,18,5.30
2008,06,23,03,19,5.30
2008,06,23,03,20,5.30
2008,06,23,03,21,5.30
2008,06,23,03,22,5.30
2008,06,23,03,23,5.30
2008,06,23,03,24,5.30
2008,06,23,03,25,5.30
2008,06,23,03,26,5.30
2008,06,23,03,27,5.30
2008,06,23,03,28,5.30
2008,06,23,03,29,5.30
2008,06,23,03,30,5.20
2008,06,23,03,31,5.20
2008,06,23,03,32,5.20
2008,06,23,03,33,5.10
2008,06,23,03,34,5.10
2008,06,23,03,35,5.10
2008,06,23,03,36,5.10
2008,06,23,03,37,5.10
2008,06,23,03,38,5.10
2008,06,23,03,39,5.10
2008,06,23,03,40,5.10
2008,06,23,03,41,5.10
2008,06,23,03,42,5.10
2008,06,23,03,43,4.90
2008,06,23,03,44,4.90
2008,06,23,03,45,4.90
2008,06,23,03,46,5.00
2008,06,23,03,47,5.10
2008,06,23,03,48,5.10
2008,06,23,03,49,5.10
2008,06,23,03,50,5.10
2008,06,23,03,51,5.10
2008,06,23,03,52,5.10
2008,06,23,03,53,5.10
2008,06,23,03,54,5.20
2008,06,23,03,55,5.20
2008,06,23,03,56,5.20
2008,06,23,03,57,5.30
2008,06,23,03,58,5.30
2008,06,23,03,59,5.30
2008,06,23,04,00,5.30
2008,06,23,04,01,5.30
2008,06,23,04,02,5.30
2008,06,23,04,03,5.40
2008,06,23,04,04,5.40
2008,06,23,04,05,5.40
2008,06,23,04,06,5.50
2008,06,23,04,07,5.50
2008,06,23,04,08,5.50
2008,06,23,04,09,5.60
2008,06,23,04,10,5.60
2008,06,23,04,11,5.70
2008,06,23,04,12,5.70
2008,06,23,04,13,5.70
2008,06,23,04,14,5.70
2008,06,23,04,15,5.80
2008,06,23,04,16,5.80
2008,06,23,04,17,5.80
2008,06,23,04,18,5.80
2008,06,23,04,19,5.90
2008,06,23,04,20,5.90
2008,06,23,04,21,5.90
2008,06,23,04,22,5.90
2008,06,23,04,23,5.90
2008,06,23,04,24,5.90
2008,06,23,04,25,5.90
2008,06,23,04,26,5.90
2008,06,23,04,27,5.90
2008,06,23,04,28,5.90
2008,06,23,04,29,5.90
2008,06,23,04,30,5.90
2008,06,23,04,31,5.90
2008,06,23,04,32,5.90
2008,06,23,04,33,5.90
2008,06,23,04,34,5.90
2008,06,23,04,35,5.90
2008,06,23,04,36,5.90
2008,06,23,04,37,5.80
2008,06,23,04,38,5.80
2008,06,23,04,39,5.80
2008,06,23,04,40,5.80
2008,06,23,04,41,5.80
2008,06,23,04,42,5.80
2008,06,23,04,43,5.80
2008,06,23,04,44,5.80
2008,06,23,04,45,5.80
2008,06,23,04,46,5.80
2008,06,23,04,47,5.70
2008,06,23,04,48,5.70
2008,06,23,04,49,5.70
2008,06,23,04,50,5.70
2008,06,23,04,51,5.70
2008,06,23,04,52,5.70
2008,06,23,04,53,5.70
2008,06,23,04,54,5.70
2008,06,23,04,55,5.70
2008,06,23,04,56,5.70
2008,06,23,04,57,5.70
2008,06,23,04,58,5.70
2008,06,23,04,59,5.70
2008,06,23,05,00,5.70
2008,06,23,05,01,5.70
2008,06,23,05,02,5.70
2008,06,23,05,03,5.70
2008,06,23,05,04,5.70
2008,06,23,05,05,5.70
2008,06,23,05,06,5.70
2008,06,23,05,07,5.70
2008,06,23,05,08,5.70
2008,06,23,05,09,5.70
2008,06,23,05,10,5.70
2008,06,23,05,11,5.70
2008,06,23,05,12,5.70
2008,06,23,05,13,5.70
2008,06,23,05,14,5.60
2008,06,23,05,15,5.60
2008,06,23,05,16,5.60
2008,06,23,05,17,5.50
2008,06,23,05,18,5.50
2008,06,23,05,19,5.40
2008,06,23,05,20,5.40
2008,06,23,05,21,5.30
2008,06,23,05,22,5.30
2008,06,23,05,23,5.30
2008,06,23,05,24,5.30
2008,06,23,05,25,5.20
2008,06,23,05,26,5.20
2008,06,23,05,27,5.20
2008,06,23,05,28,5.10
2008,06,23,05,29,5.10
2008,06,23,05,30,5.10
2008,06,23,05,31,5.10
2008,06,23,05,32,5.10
2008,06,23,05,33,5.10
2008,06,23,05,34,5.10
2008,06,23,05,35,5.10
2008,06,23,05,36,5.10
2008,06,23,05,37,5.10
2008,06,23,05,38,5.00
2008,06,23,05,39,4.90
2008,06,23,05,40,4.90
2008,06,23,05,41,4.90
2008,06,23,05,42,4.90
2008,06,23,05,43,4.90
2008,06,23,05,44,4.90
2008,06,23,05,45,4.90
2008,06,23,05,46,4.90
2008,06,23,05,47,4.90
2008,06,23,05,48,4.90
2008,06,23,05,49,4.90
2008,06,23,05,50,4.90
2008,06,23,05,51,4.90
2008,06,23,05,52,4.90
2008,06,23,05,53,4.80
2008,06,23,05,54,4.80
2008,06,23,05,55,4.80
2008,06,23,05,56,4.80
2008,06,23,05,57,4.80
2008,06,23,05,58,4.80
2008,06,23,05,59,4.70
2008,06,23,06,00,4.70
2008,06,23,06,01,4.70
2008,06,23,06,02,4.70
2008,06,23,06,03,4.70
2008,06,23,06,04,4.70
2008,06,23,06,05,4.70
2008,06,23,06,06,4.70
2008,06,23,06,07,4.70
2008,06,23,06,08,4.70
2008,06,23,06,09,4.60
2008,06,23,06,10,4.60
2008,06,23,06,11,4.60
2008,06,23,06,12,4.60
2008,06,23,06,13,4.60
2008,06,23,06,14,4.60
2008,06,23,06,15,4.60
2008,06,23,06,16,4.60
2008,06,23,06,17,4.60
2008,06,23,06,18,4.70
2008,06,23,06,19,4.70
2008,06,23,06,20,4.70
2008,06,23,06,21,4.70
2008,06,23,06,22,4.70
2008,06,23,06,23,4.70
2008,06,23,06,24,4.70
2008,06,23,06,25,4.80
2008,06,23,06,26,4.80
2008,06,23,06,27,4.80
2008,06,23,06,28,4.80
2008,06,23,06,29,4.80
2008,06,23,06,30,4.80
2008,06,23,06,31,4.80
2008,06,23,06,32,4.80
2008,06,23,06,33,4.80
2008,06,23,06,34,4.90
2008,06,23,06,35,4.90
2008,06,23,06,36,4.90
2008,06,23,06,37,4.90
2008,06,23,06,38,4.90
2008,06,23,06,39,4.90
2008,06,23,06,40,4.90
2008,06,23,06,41,5.00
2008,06,23,06,42,5.10
2008,06,23,06,43,5.10
2008,06,23,06,44,5.10
2008,06,23,06,45,5.10
2008,06,23,06,46,5.10
2008,06,23,06,47,5.20
2008,06,23,06,48,5.20
2008,06,23,06,49,5.20
2008,06,23,06,50,5.30
2008,06,23,06,51,5.30
2008,06,23,06,52,5.30
2008,06,23,06,53,5.30
2008,06,23,06,54,5.30
2008,06,23,06,55,5.40
2008,06,23,06,56,5.40
2008,06,23,06,57,5.50
2008,06,23,06,58,5.50
2008,06,23,06,59,5.60
2008,06,23,07,00,5.60
2008,06,23,07,01,5.70
2008,06,23,07,02,5.70
2008,06,23,07,03,5.70
2008,06,23,07,04,5.80
2008,06,23,07,05,5.90
2008,06,23,07,06,6.00
2008,06,23,07,07,6.00
2008,06,23,07,08,6.10
2008,06,23,07,09,6.20
2008,06,23,07,10,6.30
2008,06,23,07,11,6.40
2008,06,23,07,12,6.60
2008,06,23,07,13,6.90
2008,06,23,07,14,7.10
2008,06,23,07,15,7.40
2008,06,23,07,16,7.70
2008,06,23,07,17,7.90
2008,06,23,07,18,8.20
2008,06,23,07,19,8.50
2008,06,23,07,20,8.70
2008,06,23,07,21,8.90
2008,06,23,07,22,9.10
2008,06,23,07,23,9.30
2008,06,23,07,24,9.40
2008,06,23,07,25,9.50
2008,06,23,07,26,9.70
2008,06,23,07,27,9.70
2008,06,23,07,28,9.90
2008,06,23,07,29,9.90
2008,06,23,07,30,10.00
2008,06,23,07,31,10.10
2008,06,23,07,32,10.10
2008,06,23,07,33,10.10
2008,06,23,07,34,10.10
2008,06,23,07,35,10.20
2008,06,23,07,36,10.20
2008,06,23,07,37,10.20
2008,06,23,07,38,10.20
2008,06,23,07,39,10.30
2008,06,23,07,40,10.30
2008,06,23,07,41,10.30
2008,06,23,07,42,10.40
2008,06,23,07,43,10.40
2008,06,23,07,44,10.40
2008,06,23,07,45,10.40
2008,06,23,07,46,10.50
2008,06,23,07,47,10.60
2008,06,23,07,48,10.60
2008,06,23,07,49,10.70
2008,06,23,07,50,10.80
2008,06,23,07,51,10.90
2008,06,23,07,52,11.00
2008,06,23,07,53,11.10
2008,06,23,07,54,11.10
2008,06,23,07,55,11.20
2008,06,23,07,56,11.30
2008,06,23,07,57,11.40
2008,06,23,07,58,11.40
2008,06,23,07,59,11.40
2008,06,23,08,00,11.50
2008,06,23,08,01,11.60
2008,06,23,08,02,11.60
2008,06,23,08,03,11.60
2008,06,23,08,04,11.70
2008,06,23,08,05,11.80
2008,06,23,08,06,11.80
2008,06,23,08,07,11.80
2008,06,23,08,08,11.90
2008,06,23,08,09,12.00
2008,06,23,08,10,12.10
2008,06,23,08,11,12.10
2008,06,23,08,12,12.20
2008,06,23,08,13,12.20
2008,06,23,08,14,12.20
2008,06,23,08,15,12.30
2008,06,23,08,16,12.30
2008,06,23,08,17,12.30
2008,06,23,08,18,12.30
2008,06,23,08,19,12.40
2008,06,23,08,20,12.50
2008,06,23,08,21,12.50
2008,06,23,08,22,12.60
2008,06,23,08,23,12.60
2008,06,23,08,24,12.70
2008,06,23,08,25,12.80
2008,06,23,08,26,12.90
2008,06,23,08,27,13.00
2008,06,23,08,28,13.10
2008,06,23,08,29,13.10
2008,06,23,08,30,13.20
2008,06,23,08,31,13.30
2008,06,23,08,32,13.30
2008,06,23,08,33,13.40
2008,06,23,08,34,13.50
2008,06,23,08,35,13.60
2008,06,23,08,36,13.60
2008,06,23,08,37,13.70
2008,06,23,08,38,13.70
2008,06,23,08,39,13.80
2008,06,23,08,40,13.80
2008,06,23,08,41,13.80
2008,06,23,08,42,13.90
2008,06,23,08,43,13.90
2008,06,23,08,44,13.90
2008,06,23,08,45,14.00
2008,06,23,08,46,14.10
2008,06,23,08,47,14.10
2008,06,23,08,48,14.20
2008,06,23,08,49,14.20
2008,06,23,08,50,14.20
2008,06,23,08,51,14.20
2008,06,23,08,52,14.20
2008,06,23,08,53,14.20
2008,06,23,08,54,14.30
2008,06,23,08,55,14.40
2008,06,23,08,56,14.50
2008,06,23,08,57,14.50
2008,06,23,08,58,14.50
2008,06,23,08,59,14.50
2008,06,23,09,00,14.60
2008,06,23,09,01,14.60
2008,06,23,09,02,14.60
2008,06,23,09,03,14.70
2008,06,23,09,04,14.70
2008,06,23,09,05,14.80
2008,06,23,09,06,14.80
2008,06,23,09,07,14.80
2008,06,23,09,08,14.80
2008,06,23,09,09,14.80
2008,06,23,09,10,14.80
2008,06,23,09,11,14.80
2008,06,23,09,12,14.80
2008,06,23,09,13,14.80
2008,06,23,09,14,14.80
2008,06,23,09,15,14.80
2008,06,23,09,16,14.80
2008,06,23,09,17,14.80
2008,06,23,09,18,14.80
2008,06,23,09,19,14.80
2008,06,23,09,20,14.70
2008,06,23,09,21,14.70
2008,06,23,09,22,14.80
2008,06,23,09,23,14.80
2008,06,23,09,24,14.70
2008,06,23,09,25,14.70
2008,06,23,09,26,14.70
2008,06,23,09,27,14.70
2008,06,23,09,28,14.70
2008,06,23,09,29,14.70
2008,06,23,09,30,14.70
2008,06,23,09,31,14.70
2008,06,23,09,32,14.70
2008,06,23,09,33,14.70
2008,06,23,09,34,14.70
2008,06,23,09,35,14.70
2008,06,23,09,36,14.70
2008,06,23,09,37,14.70
2008,06,23,09,38,14.70
2008,06,23,09,39,14.70
2008,06,23,09,40,14.80
2008,06,23,09,41,14.80
2008,06,23,09,42,14.80
2008,06,23,09,43,14.80
2008,06,23,09,44,14.80
2008,06,23,09,45,14.80
2008,06,23,09,46,14.80
2008,06,23,09,47,14.80
2008,06,23,09,48,14.80
2008,06,23,09,49,14.80
2008,06,23,09,50,14.80
2008,06,23,09,51,14.80
2008,06,23,09,52,14.80
2008,06,23,09,53,14.80
2008,06,23,09,54,14.80
2008,06,23,09,55,14.80
2008,06,23,09,56,14.70
2008,06,23,09,57,14.70
2008,06,23,09,58,14.70
2008,06,23,09,59,14.70
2008,06,23,10,00,14.70
2008,06,23,10,01,14.70
2008,06,23,10,02,14.70
2008,06,23,10,03,14.70
2008,06,23,10,04,14.60
2008,06,23,10,05,14.60
2008,06,23,10,06,14.60
2008,06,23,10,07,14.60
2008,06,23,10,08,14.60
2008,06,23,10,09,14.60
2008,06,23,10,10,14.60
2008,06,23,10,11,14.70
2008,06,23,10,12,14.70
2008,06,23,10,13,14.70
2008,06,23,10,14,14.80
2008,06,23,10,15,14.80
2008,06,23,10,16,14.80
2008,06,23,10,17,14.80
2008,06,23,10,18,14.90
2008,06,23,10,19,14.90
2008,06,23,10,20,15.00
2008,06,23,10,21,15.00
2008,06,23,10,22,15.10
2008,06,23,10,23,15.10
2008,06,23,10,24,15.10
2008,06,23,10,25,15.10
2008,06,23,10,26,15.20
2008,06,23,10,27,15.20
2008,06,23,10,28,15.20
2008,06,23,10,29,15.20
2008,06,23,10,30,15.30
2008,06,23,10,31,15.30
2008,06,23,10,32,15.30
2008,06,23,10,33,15.30
2008,06,23,10,34,15.30
2008,06,23,10,35,15.30
2008,06,23,10,36,15.30
2008,06,23,10,37,15.40
2008,06,23,10,38,15.40
2008,06,23,10,39,15.50
2008,06,23,10,40,15.50
2008,06,23,10,41,15.50
2008,06,23,10,42,15.50
2008,06,23,10,43,15.60
2008,06,23,10,44,15.60
2008,06,23,10,45,15.60
2008,06,23,10,46,15.70
2008,06,23,10,47,15.70
2008,06,23,10,48,15.70
2008,06,23,10,49,15.80
2008,06,23,10,50,15.80
2008,06,23,10,51,15.80
2008,06,23,10,52,15.80
2008,06,23,10,53,15.80
2008,06,23,10,54,15.80
2008,06,23,10,55,15.80
2008,06,23,10,56,15.80
2008,06,23,10,57,15.80
2008,06,23,10,58,15.80
2008,06,23,10,59,15.80
2008,06,23,11,00,15.70
2008,06,23,11,01,15.70
2008,06,23,11,02,15.70
2008,06,23,11,03,15.70
2008,06,23,11,04,15.70
2008,06,23,11,05,15.60
2008,06,23,11,06,15.60
2008,06,23,11,07,15.60
2008,06,23,11,08,15.60
2008,06,23,11,09,15.50
2008,06,23,11,10,15.40
2008,06,23,11,11,15.30
2008,06,23,11,12,15.30
2008,06,23,11,13,15.30
2008,06,23,11,14,15.30
2008,06,23,11,15,15.30
2008,06,23,11,16,15.30
2008,06,23,11,17,15.30
2008,06,23,11,18,15.30
2008,06,23,11,19,15.30
2008,06,23,11,20,15.30
2008,06,23,11,21,15.30
2008,06,23,11,22,15.30
2008,06,23,11,23,15.30
2008,06,23,11,24,15.40
2008,06,23,11,25,15.40
2008,06,23,11,26,15.40
2008,06,23,11,27,15.40
2008,06,23,11,28,15.40
2008,06,23,11,29,15.40
2008,06,23,11,30,15.30
2008,06,23,11,31,15.30
2008,06,23,11,32,15.30
2008,06,23,11,33,15.30
2008,06,23,11,34,15.30
2008,06,23,11,35,15.30
2008,06,23,11,36,15.30
2008,06,23,11,37,15.30
2008,06,23,11,38,15.30
2008,06,23,11,39,15.30
2008,06,23,11,40,15.30
2008,06,23,11,41,15.40
2008,06,23,11,42,15.30
2008,06,23,11,43,15.40
2008,06,23,11,44,15.40
2008,06,23,11,45,15.40
2008,06,23,11,46,15.40
2008,06,23,11,47,15.40
2008,06,23,11,48,15.40
2008,06,23,11,49,15.40
2008,06,23,11,50,15.40
2008,06,23,11,51,15.40
2008,06,23,11,52,15.40
2008,06,23,11,53,15.40
2008,06,23,11,54,15.30
2008,06,23,11,55,15.30
2008,06,23,11,56,15.30
2008,06,23,11,57,15.30
2008,06,23,11,58,15.20
2008,06,23,11,59,15.20
2008,06,23,12,00,15.20
2008,06,23,12,01,15.20
2008,06,23,12,02,15.20
2008,06,23,12,03,15.20
2008,06,23,12,04,15.20
2008,06,23,12,05,15.20
2008,06,23,12,06,15.20
2008,06,23,12,07,15.30
2008,06,23,12,08,15.30
2008,06,23,12,09,15.40
2008,06,23,12,10,15.50
2008,06,23,12,11,15.50
2008,06,23,12,12,15.50
2008,06,23,12,13,15.50
2008,06,23,12,14,15.40
2008,06,23,12,15,15.30
2008,06,23,12,16,15.30
2008,06,23,12,17,15.30
2008,06,23,12,18,15.40
2008,06,23,12,19,15.40
2008,06,23,12,20,15.40
2008,06,23,12,21,15.50
2008,06,23,12,22,15.50
2008,06,23,12,23,15.50
2008,06,23,12,24,15.50
2008,06,23,12,25,15.50
2008,06,23,12,26,15.50
2008,06,23,12,27,15.60
2008,06,23,12,28,15.60
2008,06,23,12,29,15.60
2008,06,23,12,30,15.70
2008,06,23,12,31,15.70
2008,06,23,12,32,15.70
2008,06,23,12,33,15.70
2008,06,23,12,34,15.80
2008,06,23,12,35,15.80
2008,06,23,12,36,15.80
2008,06,23,12,37,15.80
2008,06,23,12,38,15.80
2008,06,23,12,39,15.90
2008,06,23,12,40,15.90
2008,06,23,12,41,15.90
2008,06,23,12,42,15.90
2008,06,23,12,43,15.90
2008,06,23,12,44,15.90
2008,06,23,12,45,15.90
2008,06,23,12,46,15.90
2008,06,23,12,47,15.90
2008,06,23,12,48,15.80
2008,06,23,12,49,15.80
2008,06,23,12,50,15.90
2008,06,23,12,51,15.90
2008,06,23,12,52,15.90
2008,06,23,12,53,15.90
2008,06,23,12,54,15.90
2008,06,23,12,55,16.10
2008,06,23,12,56,16.10
2008,06,23,12,57,16.10
2008,06,23,12,58,16.10
2008,06,23,12,59,16.10
2008,06,23,13,00,16.10
2008,06,23,13,01,16.20
2008,06,23,13,02,16.20
2008,06,23,13,03,16.30
2008,06,23,13,04,16.40
2008,06,23,13,05,16.40
2008,06,23,13,06,16.40
2008,06,23,13,07,16.40
2008,06,23,13,08,16.40
2008,06,23,13,09,16.50
2008,06,23,13,10,16.60
2008,06,23,13,11,16.70
2008,06,23,13,12,16.60
2008,06,23,13,13,16.60
2008,06,23,13,14,16.60
2008,06,23,13,15,16.60
2008,06,23,13,16,16.70
2008,06,23,13,17,16.70
2008,06,23,13,18,16.70
2008,06,23,13,19,16.70
2008,06,23,13,20,16.80
2008,06,23,13,21,16.90
2008,06,23,13,22,16.90
2008,06,23,13,23,17.00
2008,06,23,13,24,17.00
2008,06,23,13,25,17.00
2008,06,23,13,26,17.00
2008,06,23,13,27,17.00
2008,06,23,13,28,17.00
2008,06,23,13,29,17.00
2008,06,23,13,30,17.10
2008,06,23,13,31,17.10
2008,06,23,13,32,17.20
2008,06,23,13,33,17.20
2008,06,23,13,34,17.20
2008,06,23,13,35,17.20
2008,06,23,13,36,17.20
2008,06,23,13,37,17.10
2008,06,23,13,38,17.10
2008,06,23,13,39,17.00
2008,06,23,13,40,17.00
2008,06,23,13,41,16.90
2008,06,23,13,42,17.00
2008,06,23,13,43,17.00
2008,06,23,13,44,17.10
2008,06,23,13,45,17.00
2008,06,23,13,46,17.00
2008,06,23,13,47,17.10
2008,06,23,13,48,17.10
2008,06,23,13,49,17.10
2008,06,23,13,50,17.10
2008,06,23,13,51,17.10
2008,06,23,13,52,17.20
2008,06,23,13,53,17.20
2008,06,23,13,54,17.30
2008,06,23,13,55,17.40
2008,06,23,13,56,17.40
2008,06,23,13,57,17.50
2008,06,23,13,58,17.50
2008,06,23,13,59,17.60
2008,06,23,14,00,17.60
2008,06,23,14,01,17.60
2008,06,23,14,02,17.70
2008,06,23,14,03,17.70
2008,06,23,14,04,17.80
2008,06,23,14,05,17.90
2008,06,23,14,06,17.90
2008,06,23,14,07,18.10
2008,06,23,14,08,18.20
2008,06,23,14,09,18.20
2008,06,23,14,10,18.20
2008,06,23,14,11,18.20
2008,06,23,14,12,18.20
2008,06,23,14,13,18.20
2008,06,23,14,14,18.20
2008,06,23,14,15,18.20
2008,06,23,14,16,18.20
2008,06,23,14,17,18.20
2008,06,23,14,18,18.20
2008,06,23,14,19,18.20
2008,06,23,14,20,18.20
2008,06,23,14,21,18.20
2008,06,23,14,22,18.20
2008,06,23,14,23,18.20
2008,06,23,14,24,18.20
2008,06,23,14,25,18.20
2008,06,23,14,26,18.20
2008,06,23,14,27,18.20
2008,06,23,14,28,18.20
2008,06,23,14,29,18.20
2008,06,23,14,30,18.10
2008,06,23,14,31,18.00
2008,06,23,14,32,17.90
2008,06,23,14,33,17.90
2008,06,23,14,34,17.90
2008,06,23,14,35,17.90
2008,06,23,14,36,17.90
2008,06,23,14,37,17.90
2008,06,23,14,38,18.00
2008,06,23,14,39,18.10
2008,06,23,14,40,18.20
2008,06,23,14,41,18.20
2008,06,23,14,42,18.30
2008,06,23,14,43,18.40
2008,06,23,14,44,18.60
2008,06,23,14,45,18.60
2008,06,23,14,46,18.80
2008,06,23,14,47,18.80
2008,06,23,14,48,18.90
2008,06,23,14,49,18.90
2008,06,23,14,50,18.80
2008,06,23,14,51,18.80
2008,06,23,14,52,18.80
2008,06,23,14,53,18.80
2008,06,23,14,54,18.80
2008,06,23,14,55,18.80
2008,06,23,14,56,18.80
2008,06,23,14,57,18.70
2008,06,23,14,58,18.80
2008,06,23,14,59,18.80
2008,06,23,15,00,18.80
2008,06,23,15,01,18.80
2008,06,23,15,02,18.90
2008,06,23,15,03,18.90
2008,06,23,15,04,19.00
2008,06,23,15,05,19.10
2008,06,23,15,06,19.10
2008,06,23,15,07,19.10
2008,06,23,15,08,19.20
2008,06,23,15,09,19.30
2008,06,23,15,10,19.40
2008,06,23,15,11,19.50
2008,06,23,15,12,19.40
2008,06,23,15,13,19.30
2008,06,23,15,14,19.20
2008,06,23,15,15,19.10
2008,06,23,15,16,19.10
2008,06,23,15,17,19.10
2008,06,23,15,18,19.10
2008,06,23,15,19,19.20
2008,06,23,15,20,19.30
2008,06,23,15,21,19.40
2008,06,23,15,22,19.40
2008,06,23,15,23,19.60
2008,06,23,15,24,19.70
2008,06,23,15,25,19.80
2008,06,23,15,26,19.80
2008,06,23,15,27,19.80
2008,06,23,15,28,19.80
2008,06,23,15,29,19.90
2008,06,23,15,30,19.80
2008,06,23,15,31,19.80
2008,06,23,15,32,19.90
2008,06,23,15,33,19.90
2008,06,23,15,34,19.90
2008,06,23,15,35,20.00
2008,06,23,15,36,20.10
2008,06,23,15,37,20.20
2008,06,23,15,38,20.20
2008,06,23,15,39,20.30
2008,06,23,15,40,20.30
2008,06,23,15,41,20.30
2008,06,23,15,42,20.30
2008,06,23,15,43,20.40
2008,06,23,15,44,20.40
2008,06,23,15,45,20.30
2008,06,23,15,46,20.20
2008,06,23,15,47,20.00
2008,06,23,15,48,19.90
2008,06,23,15,49,19.80
2008,06,23,15,50,19.60
2008,06,23,15,51,19.50
2008,06,23,15,52,19.30
2008,06,23,15,53,19.20
2008,06,23,15,54,19.00
2008,06,23,15,55,18.90
2008,06,23,15,56,18.80
2008,06,23,15,57,18.80
2008,06,23,15,58,18.70
2008,06,23,15,59,18.70
2008,06,23,16,00,18.60
2008,06,23,16,01,18.60
2008,06,23,16,02,18.60
2008,06,23,16,03,18.60
2008,06,23,16,04,18.50
2008,06,23,16,05,18.50
2008,06,23,16,06,18.50
2008,06,23,16,07,18.50
2008,06,23,16,08,18.40
2008,06,23,16,09,18.40
2008,06,23,16,10,18.40
2008,06,23,16,11,18.30
2008,06,23,16,12,18.30
2008,06,23,16,13,18.20
2008,06,23,16,14,18.20
2008,06,23,16,15,18.20
2008,06,23,16,16,18.20
2008,06,23,16,17,18.20
2008,06,23,16,18,18.20
2008,06,23,16,19,18.30
2008,06,23,16,20,18.30
2008,06,23,16,21,18.40
2008,06,23,16,22,18.50
2008,06,23,16,23,18.60
2008,06,23,16,24,18.60
2008,06,23,16,25,18.70
2008,06,23,16,26,18.70
2008,06,23,16,27,18.80
2008,06,23,16,28,18.80
2008,06,23,16,29,18.80
2008,06,23,16,30,18.80
2008,06,23,16,31,18.90
2008,06,23,16,32,18.90
2008,06,23,16,33,18.90
2008,06,23,16,34,18.90
2008,06,23,16,35,18.90
2008,06,23,16,36,18.90
2008,06,23,16,37,18.80
2008,06,23,16,38,18.80
2008,06,23,16,39,18.80
2008,06,23,16,40,18.80
2008,06,23,16,41,18.80
2008,06,23,16,42,18.80
2008,06,23,16,43,18.70
2008,06,23,16,44,18.70
2008,06,23,16,45,18.70
2008,06,23,16,46,18.70
2008,06,23,16,47,18.60
2008,06,23,16,48,18.50
2008,06,23,16,49,18.50
2008,06,23,16,50,18.40
2008,06,23,16,51,18.40
2008,06,23,16,52,18.40
2008,06,23,16,53,18.50
2008,06,23,16,54,18.50
2008,06,23,16,55,18.50
2008,06,23,16,56,18.40
2008,06,23,16,57,18.40
2008,06,23,16,58,18.40
2008,06,23,16,59,18.40
2008,06,23,17,00,18.40
2008,06,23,17,01,18.40
2008,06,23,17,02,18.30
2008,06,23,17,03,18.30
2008,06,23,17,04,18.40
2008,06,23,17,05,18.40
2008,06,23,17,06,18.30
2008,06,23,17,07,18.30
2008,06,23,17,08,18.30
2008,06,23,17,09,18.20
2008,06,23,17,10,18.20
2008,06,23,17,11,18.20
2008,06,23,17,12,18.10
2008,06,23,17,13,18.10
2008,06,23,17,14,18.10
2008,06,23,17,15,18.10
2008,06,23,17,16,18.10
2008,06,23,17,17,18.10
2008,06,23,17,18,18.10
2008,06,23,17,19,18.10
2008,06,23,17,20,18.10
2008,06,23,17,21,18.10
2008,06,23,17,22,18.10
2008,06,23,17,23,18.10
2008,06,23,17,24,18.10
2008,06,23,17,25,18.00
2008,06,23,17,26,17.90
2008,06,23,17,27,17.90
2008,06,23,17,28,17.90
2008,06,23,17,29,18.00
2008,06,23,17,30,18.10
2008,06,23,17,31,18.10
2008,06,23,17,32,18.10
2008,06,23,17,33,18.10
2008,06,23,17,34,18.10
2008,06,23,17,35,18.10
2008,06,23,17,36,18.10
2008,06,23,17,37,18.10
2008,06,23,17,38,18.10
2008,06,23,17,39,18.20